Cedar Rapids, IA

3:18 AM CDT on July 21, 2017 (GMT -0500)
The Eastern Iowa Airport

Weather History for KCID - December, 2012

Change the Weather History Date:

Thursday, December 20, 2012

  Actual Average Record
Temperature  
Mean Temperature 23 °F 22 °F  
Max Temperature 33 °F 30 °F 55 °F (1967)
Min Temperature 13 °F 13 °F -16 °F (1924)
Degree Days  
Heating Degree Days 42 43  
Month to date heating degree days 580 804  
Since 1 July heating degree days 2173 2250  
Cooling Degree Days 0 0  
Month to date cooling degree days 0 0  
Year to date cooling degree days 1052 748  
Moisture  
Dew Point 26 °F    
Average Humidity 92    
Maximum Humidity 100    
Minimum Humidity 84    
Precipitation  
Precipitation 0.04 in 0.05 in 0.93 in (2006)
Month to date precipitation 0.45 1.02  
Year to date precipitation 23.47 34.21  
Sea Level Pressure  
Sea Level Pressure 29.58 in    
Wind  
Wind Speed 31 mph (North)    
Max Wind Speed 43 mph    
Max Gust Speed 59 mph    
Visibility 2 miles    
Events Fog , Rain , Snow    
T = Trace of Precipitation, MM = Missing Value Source: NWS Daily Summary

Daily Weather History Graph

Daily Weather History Graph

Search for Another Location

Airport or City:

Trip Planner

Search our weather history database for the weather conditions in past years. The results will help you decide how hot, cold, wet, or windy it might be!

Date:

Astronomy

Dec. 20, 2012 Rise Set
Actual Time 7:30 AM CST 4:38 PM CST
Civil Twilight 6:59 AM CST 5:10 PM CST
Nautical Twilight 6:23 AM CST 5:45 PM CST
Astronomical Twilight 5:50 AM CST 6:19 PM CST
Moon 12:01 PM CST (12/20) 12:13 AM CST (12/20)
Length of Visible Light 10h 11m
Length of Day
9h 07m
First Quarter, 55% of the Moon is Illuminated
Dec 20
First Quarter
Dec 28
Full
Jan 4
Last Quarter
Jan 11
New
Jan 18
First Quarter

Hourly Weather History & Observations

Time (CST) Temp. Windchill Dew Point Humidity Pressure Visibility Wind Dir Wind Speed Gust Speed Precip Events Conditions
12:06 AM 33.8 °F 22.5 °F 33.8 °F 100% 29.64 in 1.5 mi ENE 19.6 mph - 0.00 in Snow Light Snow
12:21 AM 33.8 °F - 33.8 °F 100% 29.63 in - North - - 0.00 in   Unknown
12:52 AM 33.1 °F 22.6 °F 33.1 °F 100% 29.65 in - NE 16.1 mph - 0.01 in Rain Light Rain
1:15 AM 33.8 °F 23.2 °F 33.8 °F 100% 29.60 in 2.5 mi NNE 17.3 mph - 0.01 in Snow Light Snow
1:27 AM 33.8 °F 22.8 °F 33.8 °F 100% 29.60 in 1.5 mi NE 18.4 mph - 0.02 in Snow Light Snow
1:43 AM 32.0 °F 20.5 °F 32.0 °F 100% 29.56 in 0.5 mi NE 18.4 mph - 0.02 in Fog , Snow Snow
1:52 AM 32.0 °F 19.8 °F 32.0 °F 100% 29.57 in 0.5 mi NE 20.7 mph 26.5 mph 0.02 in Fog , Snow Snow
2:07 AM 32.0 °F - 32.0 °F 100% 29.54 in - North - - 0.00 in Snow Snow
2:52 AM - - - N/A% 29.50 in - North - - 0.00 in   Unknown
3:42 AM 33.8 °F 22.2 °F 32.0 °F 93% 29.48 in 1.2 mi NNE 20.7 mph 27.6 mph N/A Snow Light Snow
3:52 AM 32.0 °F 18.9 °F 32.0 °F 100% 29.49 in 0.8 mi NNE 24.2 mph 29.9 mph N/A Snow Light Snow
3:58 AM 32.0 °F 19.5 °F 32.0 °F 100% 29.47 in 1.0 mi NNE 21.9 mph 29.9 mph 0.00 in Snow Light Snow
4:10 AM 32.0 °F 19.5 °F 32.0 °F 100% 29.46 in 3.0 mi NNE 21.9 mph 31.1 mph 0.00 in Snow Light Snow
4:52 AM 32.0 °F 18.6 °F 30.9 °F 96% 29.47 in 4.0 mi North 25.3 mph 32.2 mph 0.01 in Snow Light Ice Pellets
5:29 AM 32.0 °F 17.6 °F 30.2 °F 93% 29.43 in 4.0 mi NNE 29.9 mph 38.0 mph N/A Snow Light Snow
5:52 AM 32.0 °F 18.1 °F 30.0 °F 92% 29.45 in 2.5 mi North 27.6 mph 34.5 mph N/A Snow Light Snow
6:39 AM 30.2 °F 14.7 °F 30.2 °F 100% 29.40 in 1.5 mi North 32.2 mph 44.9 mph N/A Snow Light Snow
6:52 AM 30.9 °F 15.5 °F 30.0 °F 96% 29.43 in 1.5 mi North 33.4 mph 42.6 mph N/A Snow Light Snow
7:45 AM 30.2 °F 14.9 °F 28.4 °F 93% 29.39 in 0.8 mi North 31.1 mph 46.0 mph N/A Snow Light Snow
7:52 AM 30.9 °F 15.5 °F 28.9 °F 92% 29.42 in 0.8 mi North 33.4 mph 43.7 mph N/A Snow Light Snow
8:52 AM 30.9 °F 16.4 °F 28.9 °F 92% 29.42 in 1.5 mi North 28.8 mph 40.3 mph N/A Snow Light Snow
9:21 AM 30.2 °F 14.5 °F 30.2 °F 100% 29.40 in 0.8 mi North 33.4 mph 44.9 mph N/A Snow Light Snow
9:52 AM 30.9 °F 15.7 °F 28.9 °F 92% 29.43 in 0.8 mi North 32.2 mph 44.9 mph N/A Snow Light Snow
10:49 AM 30.2 °F 14.1 °F 28.4 °F 93% 29.42 in 0.2 mi NNW 35.7 mph 47.2 mph N/A Snow Heavy Snow
10:52 AM 30.0 °F 14.9 °F 28.9 °F 96% 29.45 in 0.2 mi NNW 29.9 mph 43.7 mph N/A Snow Heavy Snow
11:52 AM 28.0 °F 11.1 °F 26.1 °F 92% 29.45 in 0.2 mi NNW 35.7 mph 50.6 mph N/A Snow Heavy Snow
12:52 PM 28.0 °F 10.9 °F 26.1 °F 92% 29.47 in 0.2 mi NNW 36.8 mph 51.8 mph N/A Snow Snow
1:24 PM 26.6 °F 9.8 °F 26.6 °F 100% 29.47 in 0.5 mi NNW 32.2 mph 41.4 mph N/A Snow Snow
1:52 PM 27.0 °F 10.5 °F 25.0 °F 92% 29.52 in 0.5 mi NW 31.1 mph 41.4 mph N/A Snow Snow
2:13 PM 26.6 °F 9.1 °F 24.8 °F 93% 29.51 in 0.2 mi NW 35.7 mph 43.7 mph N/A Snow Snow
2:52 PM 26.1 °F 7.7 °F 24.1 °F 92% 29.55 in 0.2 mi NW 39.1 mph 52.9 mph N/A Snow Light Snow
3:37 PM 26.6 °F 9.3 °F 24.8 °F 93% 29.59 in 0.8 mi NW 34.5 mph 47.2 mph N/A Snow Blowing Snow
3:52 PM 26.1 °F 9.6 °F 24.1 °F 92% 29.64 in 0.8 mi NW 29.9 mph 49.5 mph N/A Snow Blowing Snow
4:01 PM 26.6 °F 9.6 °F 24.8 °F 93% 29.62 in 2.0 mi NW 33.4 mph 42.6 mph N/A Snow Blowing Snow
4:52 PM 25.0 °F 6.9 °F 23.0 °F 92% 29.70 in 2.5 mi NW 35.7 mph 40.3 mph N/A Snow Blowing Snow
5:52 PM 25.0 °F 7.1 °F 21.9 °F 88% 29.75 in 4.0 mi NW 34.5 mph 42.6 mph N/A Snow Blowing Snow
6:52 PM 21.9 °F 4.5 °F 19.9 °F 92% 29.78 in 7.0 mi NW 27.6 mph 36.8 mph N/A   Overcast
7:52 PM 19.9 °F 1.0 °F 17.1 °F 89% 29.81 in 5.0 mi WNW 31.1 mph 40.3 mph N/A   Overcast
8:33 PM 17.6 °F -2.5 °F 14.0 °F 86% 29.79 in 6.0 mi NW 32.2 mph 39.1 mph N/A   Mostly Cloudy
8:52 PM 17.1 °F -3.2 °F 14.0 °F 88% 29.84 in 5.0 mi NW 32.2 mph 40.3 mph N/A   Overcast
9:52 PM 16.0 °F -5.0 °F 12.9 °F 88% 29.88 in 8.0 mi NW 33.4 mph 42.6 mph N/A   Clear
10:52 PM 14.0 °F -6.5 °F 10.9 °F 88% 29.92 in 4.0 mi WNW 28.8 mph 38.0 mph N/A   Clear
11:52 PM 12.9 °F -7.6 °F 10.0 °F 88% 29.95 in 7.0 mi NW 27.6 mph 36.8 mph N/A   Clear
11:59 PM 12.2 °F -8.2 °F 10.4 °F 92% 29.91 in 8.0 mi NW 26.5 mph 35.7 mph N/A   Overcast